{"data":{"norad_id":66918,"epoch":"2026-09-20T02:27:34.456032Z","epoch_age_seconds":146275,"freshness":"FRESH","line1":"1 66918U 25285D   26263.10248213 -.00000102  00000+0  48306-4 0  9990","line2":"2 66918  50.0045 165.5863 0000112 264.8579  95.2281 13.29329115 38683","mean_motion":13.29329115,"eccentricity":1.12e-5,"inclination_deg":50.0045,"raan_deg":165.5863,"arg_perigee_deg":264.8579,"mean_anomaly_deg":95.2281,"bstar":4.8306e-5,"rev_number":3868,"period_min":108.32531867024,"perigee_km":1149.2105053044,"apogee_km":1149.379119777,"semimajor_km":7527.4318125407,"source":"CELESTRAK","updated_at":"2026-09-21T09:00:16.304962Z"}}